Home > Time Zones > World Clock > Weather > Aktau > Past weeks

Flag for Kazakhstan Weather past 2 weeks in Aktau, Kazakhstan

Now
82 °F

Sunny.


Feels Like: 80 °F
Forecast: 74 / 92 °F
Wind: 6 mph from Northwest

Location: Aktau

Current Time: Aug 1, 2014 at 9:51:17 PM

Latest Report: Aug 1, 2014 at 9:00 PM


Visibility: 10 mi

Pressure: 29.89 "Hg

Humidity: 19%

Dew point: 36 °F

Location of AktauLocation

Historic Weather in Aktau — Graph

°F

Aktau temperature yesterday

Maximum temperature yesterday: 91 °F (at 1:00 PM)
Minimum temperature yesterday: 63 °F (at 4:00 AM)
Average temperature yesterday: 77 °F

Past Weeks' High & Low Weather Summary

 TemperatureHumidityPressure
High100 °F (Jul 25, 1:30 PM)74% (Jul 19, 8:00 PM)30.04 "Hg (Jul 19, 8:00 PM)
Low57 °F (Jul 30, 5:00 AM)7% (Jul 31, 12:00 PM)29.56 "Hg (Jul 19, 8:00 PM)
Average80 °F25%29.85 "Hg
* Reported Jul 17 8:00 PM — Aug 1 8:30 PM, Aktau, Weather by CustomWeather, © 2014

Note: Actual official high and low records may vary slightly from our data, if they occured in-between our weather recording intervals... More about our weather records

Advertising

Aktau weather history for previous 24 hours

 ConditionsComfort  
Time TempWeatherWind HumidityBarometerVisibility
8:30 PM
Aug 1
84 °FSunny.3 mph16%29.89 "Hg10 mi
8:00 PM86 °FPassing clouds.3 mph17%29.89 "HgN/A
7:30 PM86 °FPassing clouds.6 mph17%29.89 "HgN/A
7:00 PM86 °FPassing clouds.8 mph18%29.89 "HgN/A
6:30 PM88 °FSunny.10 mph13%29.89 "Hg10 mi
6:00 PM90 °FPassing clouds.10 mph13%29.89 "HgN/A
5:30 PM90 °FSunny.15 mph11%29.89 "Hg10 mi
5:00 PM90 °FSunny.15 mph13%29.89 "Hg10 mi
4:30 PM91 °FSunny.17 mph10%29.89 "Hg10 mi
4:00 PM91 °FSunny.15 mph11%29.89 "Hg10 mi
3:30 PM93 °FSunny.15 mph11%29.92 "Hg10 mi
3:00 PM91 °FSunny.15 mph11%29.92 "Hg10 mi
2:30 PM91 °FSunny.17 mph9%29.92 "Hg10 mi
2:00 PM93 °FPassing clouds.13 mph10%29.92 "HgN/A
1:30 PM93 °FPassing clouds.10 mph7%29.92 "HgN/A
1:00 PM91 °FPassing clouds.10 mph7%29.95 "HgN/A
12:30 PM91 °FPassing clouds.15 mph8%29.95 "HgN/A
12:00 PM91 °FSunny.13 mph9%29.95 "Hg10 mi
11:30 AM90 °FSunny.15 mph9%29.95 "Hg10 mi
11:00 AM90 °FSunny.15 mph9%29.95 "Hg10 mi
10:30 AM88 °FSunny.15 mph10%29.95 "Hg10 mi
10:00 AM84 °FSunny.17 mph11%29.95 "Hg10 mi
9:30 AM82 °FSunny.17 mph11%29.95 "Hg10 mi
9:00 AM82 °FSunny.15 mph10%29.95 "Hg10 mi
8:30 AM79 °FSunny.13 mph12%29.95 "Hg10 mi
8:00 AM77 °FClear.10 mph12%29.95 "Hg10 mi
7:30 AM73 °FClear.10 mph15%29.95 "Hg10 mi
7:00 AM73 °FClear.10 mph15%29.95 "Hg10 mi
6:30 AM73 °FClear.13 mph15%29.95 "Hg10 mi
6:00 AM72 °FClear.10 mph17%29.95 "Hg10 mi
5:30 AM70 °FClear.10 mph21%29.95 "Hg10 mi
5:00 AM70 °FClear.10 mph23%29.95 "Hg10 mi
4:30 AM70 °FClear.10 mph25%29.95 "Hg10 mi
4:00 AM70 °FClear.10 mph25%29.95 "Hg10 mi
3:30 AM70 °FClear.10 mph27%29.95 "Hg10 mi
3:00 AM70 °FClear.13 mph29%29.95 "Hg10 mi
2:30 AM70 °FClear.13 mph29%29.95 "Hg10 mi
2:00 AM68 °FClear.10 mph33%29.95 "Hg10 mi
1:30 AM70 °FPassing clouds.10 mph33%29.95 "HgN/A
1:00 AM72 °FClear.6 mph31%29.95 "Hg10 mi
12:30 AM73 °FClear.8 mph31%29.95 "Hg10 mi
12:00 AM75 °FClear.8 mph29%29.95 "Hg10 mi
11:30 PM
Jul 31
75 °FClear.8 mph34%29.95 "Hg10 mi
11:00 PM75 °FPassing clouds.6 mph34%29.95 "HgN/A
10:30 PM77 °FSunny.6 mph32%29.95 "Hg10 mi
10:00 PM77 °FSunny.8 mph36%29.95 "Hg10 mi
9:30 PM77 °FSunny.8 mph39%29.95 "Hg10 mi
9:00 PM77 °FPassing clouds.10 mph39%29.95 "HgN/A
Weather by CustomWeather, © 2014

See weather overviewHow to use our weather pages